Regional Weather Roundup
Issued by NWS

Home | Current Version | Previous Version | Text Only | Print | Product List | Glossary Off
Versions: 1 2 3 4 5 6 7 8 9 10 11 12 13 14 15 16 17 18 19 20 21 22 23 24 25 26 27 28 29 30 31 32 33 34 35 36 37 38 39 40 41 42 43 44 45 46 47 48 49 50

000
ASUS43 KLMK 281802
RWRKY
KENTUCKY REGIONAL WEATHER ROUNDUP
NATIONAL WEATHER SERVICE LOUISVILLE KY
200 PM EDT TUE JUL 28 2015

NOTE "FAIR" INDICATES FEW OR NO CLOUDS BELOW 12,000 FEET
WITH NO SIGNIFICANT WEATHER AND/OR OBSTRUCTIONS TO VISIBILITY.

KYZ001>023-026-027-061>063-070>075-281900-
WESTERN AND SOUTH CENTRAL KENTUCKY

CITY           SKY/WX    TMP DP  RH WIND       PRES   REMARKS
PADUCAH        SUNNY     93  78  61 W6        29.98S HX 108
HENDERSON      PTSUNNY   91  77  62 CALM      29.97S HX 105
OWENSBORO      MOSUNNY   92  78  63 W7        29.99F HX 107
HOPKINSVILLE   NOT AVBL
BOWLING GREEN  MOSUNNY   84  72  67 SW5       30.01S
GLASGOW        NOT AVBL
$$

KYZ024-025-028>034-038-045-046-053-281900-
NORTH CENTRAL KENTUCKY

CITY           SKY/WX    TMP DP  RH WIND       PRES   REMARKS
LOUISVILLE/SDF PTSUNNY   91  75  59 W9        29.97F HX 101
LOUISVILLE/LOU MOSUNNY   91  73  55 W6        29.98F HX  99
FORT KNOX      NOT AVBL
$$

KYZ035>037-039>044-047>052-055>060-089>105-281900-
NORTHEAST KENTUCKY

CITY           SKY/WX    TMP DP  RH WIND       PRES   REMARKS
LEXINGTON      MOSUNNY   87  75  67 W7        30.01S HX  96
COVINGTON      PTSUNNY   89  73  59 VRB3      30.00S HX  97
FRANKFORT      MOSUNNY   89  75  63 VRB6      29.99S HX  99
$$

KYZ054-064>069-076>088-106>120-281900-
SOUTHEAST KENTUCKY

CITY           SKY/WX    TMP DP  RH WIND       PRES   REMARKS
JACKSON        MOSUNNY   87  72  60 CALM      30.03S HX  93
LONDON         MOSUNNY   90  70  51 VRB3      30.02F HX  95
SOMERSET       NOT AVBL
MIDDLESBORO    NOT AVBL
MONTICELLO     PTCLDY    91  77  63 CALM      30.04F HX 104
$$




USA.gov is the U.S. government's official web portal to all federal, state and local government web resources and services.